Regional Weather Roundup
Issued by NWS Green Bay, WI

Home | Current Version | Previous Version | Graphics & Text | Print | Product List | Glossary Off
Versions: 1 2 3 4 5 6 7 8 9 10 11 12 13 14 15 16 17 18 19 20 21 22 23 24 25 26 27 28 29 30 31 32 33 34 35 36 37 38 39 40 41 42 43 44 45 46 47 48 49 50

000
ASUS43 KGRB 210459
RWRGRB

NORTH-CENTRAL AND NORTHEAST WISCONSIN REGIONAL WEATHER ROUNDUP
NATIONAL WEATHER SERVICE GREEN BAY WI
1200 AM CDT TUE APR 21 2015

WIZ005-009-010>012-018-019-210600-
NORTH CENTRAL WISCONSIN

CITY           SKY/WX    TMP DP  RH WIND       PRES   REMARKS
IRONWOOD       CLOUDY    32  30  93 W14       29.30S
MANITOWISH WTR NOT AVBL
ARBOR VITAE    NOT AVBL
EAGLE RIVER    NOT AVBL
LAND O LAKES   NOT AVBL
RHINELANDER    CLOUDY    33  27  78 W17       29.36R
PHILLIPS       NOT AVBL
ANTIGO         NOT AVBL
TOMAHAWK       NOT AVBL
MERRILL        NOT AVBL
$$

WIZ013-073-210600-
NORTHEAST WISCONSIN

CITY           SKY/WX    TMP DP  RH WIND       PRES   REMARKS
IRON MOUNTAIN  CLOUDY    36  29  75 SW8       29.32S
MARINETTE      CLOUDY    39  28  65 W9G16     29.39S
$$

WIZ017-030-035>037-045-210600-
CENTRAL WISCONSIN

CITY           SKY/WX    TMP DP  RH WIND       PRES   REMARKS
MEDFORD        NOT AVBL
WAUSAU         CLOUDY    36  28  73 W17       29.39F
MOSINEE        NOT AVBL
MARSHFIELD     CLOUDY    36  30  79 W15       29.43S
WISC RAPIDS    LGT RAIN  39  28  64 W13       29.45F
STEVENS POINT  NOT AVBL
WAUPACA        NOT AVBL
SHAWANO        NOT AVBL
CLINTONVILLE   NOT AVBL
$$

WIZ038-039-048-051-210600-
FOX VALLEY

CITY           SKY/WX    TMP DP  RH WIND       PRES   REMARKS
NWS GREEN BAY  CLOUDY    41  30  65 W15       29.44S
APPLETON       NOT AVBL
OSHKOSH        CLOUDY    40  29  64 W6        29.47S
FOND DU LAC    CLOUDY    41  29  62 W8        29.49S
$$

WIZ022-050-052-210600-
EAST CENTRAL WISCONSIN

CITY           SKY/WX    TMP DP  RH WIND       PRES   REMARKS
STURGEON BAY   CLOUDY    39  28  65 W13       29.43S
MANITOWOC      NOT AVBL
SHEBOYGAN      CLOUDY    41  30  65 W17G24    29.47F
$$

LMZ563-521-522-541>543-210600-
LAKESHORE

STATION/POSITION TIME  TEMP    WIND        PRES    VSBY  WAVE
                       AIR SEA DIR/SP/G                  HT/PER
                 (UTC) (F)     (DEG/KT/KT) (MB)    (MI)  (FT/S)
SHEBOYGAN LKSHOR 0400   42     240/ 10/ 13  999.1F
KEWAUNEE LKSHORE 0400   41     250/  9/ 14  996.5F
NORTHPORT PIER   0400   39     230/  5/ 12  995.6S
SISTER BAY LKSHO 0400   40     260/ 18/ 20   N/A
CHAMBERS ISLAND  0400   39     210/  6/ 12  995.9S
MENOMINEE LKSHOR 0400   40     220/ 10/ 13  996.2F
$$



USA.gov is the U.S. government's official web portal to all federal, state and local government web resources and services.